Starlink 11572

operational
NORAD ID: 62990 Int'l Des: 2025-031 Owner: SPXS Country: US Constellation: starlink
LEOCIRCULAR

About Starlink 11572

Description loading...

Live Position

Loading 3D Globe...

Upcoming Passes

Altitude History

Altitude vs Time

uPlot chart will show altitude changes over time

Two-Line Element Set

1 62990U 25031K 25350.13641860 .00217315 00000-0 16486-2 0 9997
2 62990 42.9987 144.9111 0001729 291.4980 68.5703 15.70905645 49600
Epoch: Dec 16, 2025 • Age: 18 hours

Current Status

Altitude 364.0 km
Velocity 7.69 km/s
Sub-Earth Point -32.69°S, 37.74°W
Launch Date Feb 11, 2025
Age 0.8 years
Type internet

Technical Details

Classification Payload
Mass 960.00 kg
Dry Mass 910.00 kg
Total Mass 960.00 kg
Length 0.30 m
Diameter 4.10 m
Span 29.00 m
Shape Box + pan
Manufacturer SPXS
Bus Type Starlink V2MD
Phase Status In Orbit
Owner/State SPXS/US

Large Constellations

Loading constellations...